Location: Riverside Cemetery
(38.3047°N, 99.7773°W)
Time: 07:11:05
(UTC+00:00)

ADEOS - Pass Details

Date: 19 September 2020
Orbit: 792 x 795 km, 98.9° (Epoch: 20 October)

Event Time Altitude Azimuth Distance (km) Brightness Sun altitude
Rises 11:46:10 0° 5° (N) 3,299 7.0 -8.4°
Reaches altitude 10° 11:48:38 10° 357° (N) 2,366 6.1 -7.9°
Maximum altitude 11:53:26 39° 291° (WNW) 1,183 4.1 -7.0°
Drops below altitude 10° 11:58:12 10° 224° (SW) 2,352 5.6 -6.0°
Sets 12:00:39 0° 216° (SW) 3,278 6.4 -5.5°
